Cross City, FL

6:42 PM EST on December 15, 2019 (GMT -0500)
Cross City

Weather History for KCTY - October, 2019

Change the Weather History Date:

Wednesday, October 30, 2019

  Actual Average Record
Temperature  
Mean Temperature 80 °F 66 °F  
Max Temperature 90 °F 80 °F 86 °F (2004)
Min Temperature 70 °F 53 °F 34 °F (2008)
Degree Days  
Heating Degree Days 0    
Month to date heating degree days 4  
Since 1 July heating degree days 4  
Cooling Degree Days 15    
Month to date cooling degree days 330  
Year to date cooling degree days 3087  
Growing Degree Days 30 (Base 50)    
Moisture  
Dew Point 72 °F    
Average Humidity 85    
Maximum Humidity 100    
Minimum Humidity 57    
Precipitation  
Precipitation 0.00 in 0.09 in 0.11 in (2002)
Month to date precipitation 2.54 3.32  
Year to date precipitation 50.01 43.15  
Sea Level Pressure  
Sea Level Pressure 30.05 in    
Wind  
Wind Speed 4 mph (SE)    
Max Wind Speed 9 mph    
Max Gust Speed 16 mph    
Visibility 9 miles    
Events Fog    
T = Trace of Precipitation, MM = Missing Value Source: NWS Daily Summary

Daily Weather History Graph

Daily Weather History Graph

Search for Another Location

Airport or City:

Astronomy

Oct. 30, 2019 Rise Set
Actual Time 7:44 AM EDT 6:47 PM EDT
Civil Twilight 7:19 AM EDT 7:12 PM EDT
Nautical Twilight 6:51 AM EDT 7:40 PM EDT
Astronomical Twilight 6:23 AM EDT 8:08 PM EDT
Moon 10:17 AM EDT (10/30) 9:04 PM EDT (10/30)
Length of Visible Light 11h 52m
Length of Day
11h 03m
Waxing Crescent, 8% of the Moon is Illuminated
Oct 30
Waxing Crescent
Nov 4
First Quarter
Nov 12
Full
Nov 19
Last Quarter
Nov 26
New

Hourly Weather History & Observations

Time (EDT) Temp. Heat Index Dew Point Humidity Pressure Visibility Wind Dir Wind Speed Gust Speed Precip Events Conditions
12:15 AM 73.4 °F - 70.9 °F 92% 30.10 in 10.0 mi ENE 5.8 mph - N/A   Unknown
12:35 AM 73.2 °F - 70.9 °F 92% 30.09 in 10.0 mi ENE 3.5 mph - N/A   Unknown
12:55 AM 73.0 °F - 71.1 °F 93% 30.08 in 10.0 mi East 4.6 mph - N/A   Unknown
1:15 AM 72.9 °F - 71.1 °F 94% 30.08 in 10.0 mi East 3.5 mph - N/A   Unknown
1:35 AM 72.9 °F - 71.2 °F 95% 30.08 in 10.0 mi East 4.6 mph - N/A   Unknown
1:55 AM 73.4 °F - 71.6 °F 94% 30.07 in 10.0 mi ENE 3.5 mph - N/A   Unknown
2:15 AM 72.9 °F - 71.6 °F 96% 30.07 in 10.0 mi ENE 4.6 mph - N/A   Unknown
2:35 AM 72.7 °F - 71.4 °F 96% 30.07 in 10.0 mi ENE 4.6 mph - N/A   Unknown
2:55 AM 72.5 °F - 71.4 °F 96% 30.06 in 10.0 mi ENE 3.5 mph - N/A   Unknown
3:15 AM 72.7 °F - 71.8 °F 97% 30.06 in 10.0 mi ENE 4.6 mph - N/A   Unknown
3:35 AM 72.7 °F - 71.8 °F 97% 30.06 in 10.0 mi ENE 4.6 mph - N/A   Unknown
3:55 AM 73.0 °F - 72.0 °F 96% 30.05 in 10.0 mi ENE 3.5 mph - N/A   Unknown
5:15 AM 73.0 °F - 72.0 °F 96% 30.06 in 10.0 mi Calm Calm - N/A   Unknown
5:35 AM 73.4 °F - 71.6 °F 94% 30.06 in 10.0 mi East 3.5 mph - N/A   Unknown
5:55 AM 73.0 °F - 72.0 °F 96% 30.07 in 10.0 mi NE 3.5 mph - N/A   Unknown
6:15 AM 73.0 °F - 72.0 °F 96% 30.07 in 10.0 mi ENE 4.6 mph - N/A   Unknown
6:35 AM 73.2 °F - 72.3 °F 97% 30.07 in 10.0 mi ENE 4.6 mph - N/A   Unknown
6:55 AM 73.2 °F - 72.5 °F 98% 30.08 in 4.0 mi ENE 3.5 mph - N/A   Mist
7:15 AM 73.4 °F - 72.9 °F 98% 30.08 in 0.8 mi East 3.5 mph - N/A   Mist
7:35 AM 73.4 °F - 73.0 °F 99% 30.08 in 0.8 mi East 4.6 mph - N/A   Overcast
7:55 AM 73.4 °F - 73.0 °F 99% 30.09 in 0.2 mi East 3.5 mph - N/A Fog Fog
8:15 AM 73.4 °F - 73.2 °F 99% 30.09 in 0.5 mi ENE 3.5 mph - N/A Fog Fog
8:35 AM 73.9 °F - 73.8 °F 99% 30.10 in 0.8 mi NE 3.5 mph - N/A   Overcast
8:55 AM 74.3 °F - 74.1 °F 99% 30.10 in 3.0 mi East 3.5 mph - N/A   Mist
9:15 AM 75.0 °F - 74.3 °F 98% 30.10 in 7.0 mi East 3.5 mph - N/A   Unknown
9:35 AM 75.9 °F - 74.7 °F 96% 30.10 in 7.0 mi East 5.8 mph - N/A   Unknown
9:55 AM 77.0 °F - 74.8 °F 93% 30.11 in 10.0 mi East 4.6 mph - N/A   Unknown
10:15 AM 77.9 °F - 75.2 °F 91% 30.11 in 10.0 mi SSE 4.6 mph - N/A   Unknown
10:55 AM 81.3 °F 87.6 °F 75.2 °F 82% 30.11 in 10.0 mi ESE 6.9 mph - N/A   Unknown
11:15 AM 81.5 °F 88.0 °F 75.4 °F 82% 30.11 in 7.0 mi SSE 4.6 mph - N/A   Haze
11:35 AM 83.5 °F 90.6 °F 74.5 °F 74% 30.10 in 10.0 mi SSE 6.9 mph - N/A   Unknown
11:55 AM 84.2 °F 92.3 °F 75.0 °F 74% 30.10 in 10.0 mi ESE 6.9 mph - N/A   Unknown
12:15 PM 84.0 °F 91.5 °F 74.5 °F 73% 30.09 in 10.0 mi South 5.8 mph - N/A   Unknown
12:35 PM 84.4 °F 92.0 °F 74.5 °F 72% 30.08 in 10.0 mi SE 6.9 mph - N/A   Unknown
12:55 PM 85.1 °F 92.9 °F 74.3 °F 70% 30.07 in 10.0 mi South 6.9 mph - N/A   Unknown
1:15 PM 85.1 °F 92.9 °F 74.3 °F 70% 30.06 in 10.0 mi SSW 8.1 mph - N/A   Unknown
1:35 PM 86.0 °F 94.2 °F 74.3 °F 68% 30.05 in 10.0 mi SSW 9.2 mph - N/A   Unknown
1:55 PM 86.7 °F 94.6 °F 73.8 °F 65% 30.04 in 7.0 mi SSW 5.8 mph - N/A   Unknown
2:15 PM 86.4 °F 94.6 °F 74.3 °F 67% 30.03 in 10.0 mi SSE 8.1 mph - N/A   Unknown
2:35 PM 89.1 °F 98.0 °F 74.1 °F 61% 30.03 in 10.0 mi South 11.5 mph - N/A   Unknown
2:55 PM 86.7 °F 94.1 °F 73.4 °F 64% 30.02 in 10.0 mi SSW 9.2 mph - N/A   Unknown
3:15 PM 87.4 °F 95.3 °F 73.4 °F 63% 30.02 in 10.0 mi SSW 11.5 mph 16.1 mph N/A   Unknown
3:35 PM 87.1 °F 94.1 °F 72.5 °F 62% 30.02 in 10.0 mi SW 11.5 mph - N/A   Unknown
3:55 PM 87.6 °F 94.3 °F 72.1 °F 60% 30.01 in 10.0 mi SSW 9.2 mph - N/A   Unknown
4:15 PM 87.1 °F 93.6 °F 72.1 °F 61% 30.01 in 10.0 mi SSW 9.2 mph - N/A   Unknown
4:35 PM 86.4 °F 92.6 °F 72.0 °F 62% 30.01 in 10.0 mi SSW 6.9 mph - N/A   Unknown
4:55 PM 86.2 °F 92.6 °F 72.1 °F 63% 30.01 in 10.0 mi SW 8.1 mph - N/A   Unknown
5:15 PM 86.0 °F 91.8 °F 71.6 °F 62% 30.01 in 10.0 mi SW 9.2 mph - N/A   Unknown
5:35 PM 84.7 °F 90.4 °F 71.8 °F 65% 30.01 in 10.0 mi SW 6.9 mph - N/A   Unknown
5:55 PM 83.7 °F 88.6 °F 71.2 °F 66% 30.01 in 10.0 mi SSW 6.9 mph - N/A   Unknown
6:15 PM 82.2 °F 86.4 °F 70.7 °F 68% 30.01 in 10.0 mi SSW 6.9 mph - N/A   Unknown
6:35 PM 81.1 °F 85.0 °F 71.1 °F 71% 30.01 in 10.0 mi SW 3.5 mph - N/A   Unknown
6:55 PM 78.8 °F - 71.6 °F 78% 30.01 in 10.0 mi Calm Calm - N/A   Unknown
7:15 PM 76.8 °F - 71.8 °F 84% 30.02 in 10.0 mi West 3.5 mph - N/A   Unknown
7:35 PM 76.1 °F - 71.8 °F 86% 30.02 in 10.0 mi Calm Calm - N/A   Unknown
7:55 PM 75.2 °F - 71.6 °F 89% 30.02 in 10.0 mi Calm Calm - N/A   Unknown
8:15 PM 74.3 °F - 71.4 °F 91% 30.02 in 10.0 mi Calm Calm - N/A   Unknown
8:35 PM 73.6 °F - 71.4 °F 93% 30.02 in 10.0 mi Calm Calm - N/A   Unknown
8:55 PM 72.9 °F - 71.1 °F 94% 30.02 in 10.0 mi Calm Calm - N/A   Unknown
9:15 PM 72.5 °F - 70.9 °F 95% 30.02 in 10.0 mi Calm Calm - N/A   Unknown
9:35 PM 72.1 °F - 70.5 °F 95% 30.03 in 10.0 mi Calm Calm - N/A   Unknown
9:55 PM 71.2 °F - 69.8 °F 95% 30.03 in 10.0 mi Calm Calm - N/A   Unknown
10:35 PM 70.7 °F - 69.4 °F 96% 30.04 in 10.0 mi Calm Calm - N/A   Unknown
10:55 PM 70.7 °F - 69.4 °F 96% 30.04 in 10.0 mi Calm Calm - N/A   Unknown
11:15 PM 70.9 °F - 69.8 °F 96% 30.04 in 10.0 mi Calm Calm - N/A   Unknown
11:35 PM 70.5 °F - 69.6 °F 97% 30.04 in 10.0 mi Calm Calm - N/A   Unknown
11:55 PM 71.1 °F - 70.2 °F 97% 30.04 in 10.0 mi Calm Calm - N/A   Unknown